Regional Weather Roundup
Issued by NWS

Home | Current Version | Previous Version | Graphics & Text | Print | Product List | Glossary On
Versions: 1 2 3 4 5 6 7 8 9 10 11 12 13 14 15 16 17 18 19 20 21 22 23 24 25 26 27 28 29 30 31 32 33 34 35 36 37 38 39 40 41 42 43 44 45 46 47 48 49 50
729
ASUS45 KCYS 151910
RWRWY

WYOMING REGIONAL WEATHER ROUNDUP
NATIONAL WEATHER SERVICE CHEYENNE WY
100 PM MDT TUE AUG 15 2017

NOTE:  "FAIR" INDICATES FEW OR NO CLOUDS BELOW 12,000 FEET
WITH NO SIGNIFICANT WEATHER AND/OR OBSTRUCTIONS TO VISIBILITY.

WYZ001-152000-
YELLOWSTONE NATIONAL PARK

CITY           SKY/WX    TMP DP  RH WIND       PRES   REMARKS
LK YELLOWSTONE   N/A     57  44  62 VRB6      30.13F
W YELLOWSTONE  NOT AVBL

$$
WYZ002>013-054>058-071-098>099-152000-
NORTHERN WYOMING

CITY           SKY/WX    TMP DP  RH WIND       PRES   REMARKS
JACKSON        FAIR      64  42  44 CALM      30.05F
CODY           FAIR      67  42  40 VRB3      30.00F
GREYBULL       FAIR      72  49  44 SE6       29.93F
WORLAND        FAIR      67  53  61 CALM      29.95F
SHERIDAN       LGT RAIN  67  50  54 CALM      29.97S
BUFFALO        CLOUDY    62  46  55 NW12G17   30.02R
GILLETTE       CLOUDY    62  56  80 NW8       29.95S
HULETT         LGT RAIN  61  57  88 W3        29.95F
NEWCASTLE      FAIR      68  55  64 NW14G20   29.92F

$$
WYZ014>020-022>026-101>103-152000-
CENTRAL WYOMING

CITY           SKY/WX    TMP DP  RH WIND       PRES   REMARKS
BIG PINEY      FAIR      61  47  59 VRB5      30.09F
PINEDALE       FAIR      61  43  51 S6        30.09F
DUBOIS         CLOUDY    61  36  39 NW8       30.05S
LANDER           N/A    N/A N/A N/A MISG      30.02R
RIVERTON       CLOUDY    66  45  46 NE8       30.01S
CASPER         PTSUNNY   69  50  50 VRB6      29.97F
DOUGLAS        FAIR      70  55  59 N9        29.95F

$$
WYZ021-027>030-104>119-152000-
SOUTHERN WYOMING

CITY           SKY/WX    TMP DP  RH WIND       PRES   REMARKS
EVANSTON       FAIR      65  41  41 SW9       30.09F
KEMMERER         N/A     63  41  45 W13G20    30.10F
FORT BRIDGER   FAIR      67  42  40 W8G22     30.11F
ROCK SPRINGS   PTSUNNY   64  47  53 W12       30.06F
RAWLINS        FAIR      70  42  36 W14       30.04F
SARATOGA       CLOUDY    63  52  67 N7        30.06F
LARAMIE        FAIR      71  44  37 S6        30.04F
CHEYENNE       FAIR      75  53  46 E7        29.99F
TORRINGTON     FAIR      76  57  51 VRB6      29.89F
PINE BLUFFS    FAIR      77  54  44 CALM      29.94F

$$




USA.gov is the U.S. government's official web portal to all federal, state and local government web resources and services.